[[{"header":{"parameterUnit":"m.s-1","parameterCategory":1,"la1":30.2991,"la2":30.254,"lo1":-89.0895,"lo2":-89.0444,"dy":0.0017,"dx":0.0017,"nx":28,"ny":28,"refTime":"2023-04-26T15:00:00:Z","depth":0,"parameterNumber":2,"parameterNumberName":"U-component_of_WINDS"},"data":[0,0,0,0,0,0,0,0,0,0,0,0,0,0,0,0,0,0,0,0,0,0,0,0,0,0,0,0,0,0,0,0,0,0,0,0,0,0,0,0,0,0,0,0,0,0,0,0,0,0,0,0,0,0,0,0,0,0,-3.3732,-3.3733,0,-3.3852,-3.3853,-3.3854,-3.3901,-3.3901,-3.3901,-3.39,-3.4023,-3.4026,-3.403,0,0,0,0,0,0,0,0,0,0,0,0,0,-3.3543,-3.3546,-3.3732,-3.3733,-3.3735,-3.3851,-3.3853,-3.3855,-3.3901,-3.3901,-3.3901,-3.39,-3.4021,-3.4026,-3.403,0,0,0,0,0,0,0,0,0,0,0,0,0,-3.364,-3.3547,-3.3731,-3.3772,-3.3777,-3.3851,-3.3853,-3.3855,-3.3902,-3.3901,-3.3901,-3.39,-3.402,-3.4025,-3.403,-3.4073,0,0,-3.4047,-3.4049,0,0,0,0,0,0,0,0,-3.3634,-3.3647,-3.3765,-3.3769,-3.3775,-3.3861,-3.3831,-3.3928,-3.3902,-3.3854,-3.39,-3.39,-3.3969,-3.3979,-3.4002,-3.4079,-3.4084,-3.4047,-3.405,-3.4053,-3.4054,0,0,0,0,0,0,0,-3.3628,-3.3642,-3.3779,-3.3766,-3.3773,-3.3784,-3.3797,-3.385,-3.3913,-3.3858,-3.3862,-3.3876,-3.3972,-3.3997,-3.4005,-3.4086,-3.4047,-3.4052,-3.4055,-3.4057,-3.4203,-3.4204,0,0,0,0,0,0,-3.3614,-3.3636,-3.3775,-3.3783,-3.3702,-3.3788,-3.3803,-3.3834,-3.3912,-3.3924,-3.3876,-3.3877,-3.3988,-3.3999,-3.401,-3.4065,-3.4053,-3.4058,-3.4061,-3.4202,-3.4203,-3.4204,0,0,0,0,0,0,-3.361,-3.3626,-3.3771,-3.3711,-3.373,-3.3792,-3.3826,-3.3837,-3.3862,-3.3926,-3.3937,-3.389,-3.3988,-3.4002,-3.4057,-3.407,-3.406,-3.4065,-3.4202,-3.4203,-3.4204,-3.4174,0,0,0,0,0,0,-3.3604,-3.3624,-3.3641,-3.3711,-3.3733,-3.3815,-3.3827,-3.3839,-3.3871,-3.3874,-3.3942,-3.3953,-3.3989,-3.4049,-3.4062,-3.4077,-3.4069,-3.4201,-3.4202,-3.4203,-3.4174,-3.4174,-3.4174,0,0,0,0,0,-3.3597,-3.3628,-3.3642,-3.3658,-3.3755,-3.3816,-3.3829,-3.387,-3.3872,-3.3889,-3.393,-3.3951,-3.4066,-3.4054,-3.407,-3.4086,-3.42,-3.4202,-3.4203,-3.4175,-3.4174,-3.4174,0,0,0,0,0,0,-3.3558,-3.3638,-3.3654,-3.3708,-3.3755,-3.3824,-3.3847,-3.3868,-3.3916,-3.3917,-3.3966,-3.3981,-3.4031,-3.4064,-3.4049,-3.4131,-3.4135,-3.4139,-3.4108,-3.4108,-3.4108,-3.4098,-3.4074,0,0,0,0,0,-3.3556,-3.3599,-3.3666,-3.3708,-3.373,-3.3784,-3.3813,-3.384,-3.3891,-3.3911,-3.3956,-3.4004,-3.4052,-3.4082,-3.4129,-3.418,-3.4195,-3.4199,-3.4198,-3.4198,-3.4201,-3.4231,-3.4233,-3.4209,-3.4209,-3.4209,0,0,-3.3552,-3.3601,-3.3625,-3.3701,-3.3741,-3.3784,-3.3801,-3.3846,-3.3879,-3.3918,-3.3972,-3.4007,-3.4064,-3.4117,-3.4142,-3.4146,-3.4211,-3.42,-3.4199,-3.4203,-3.4233,-3.4235,-3.4237,-3.421,-3.421,-3.421,0,0,-3.3566,-3.3607,-3.3646,-3.3686,-3.3745,-3.3781,-3.379,-3.3857,-3.3881,-3.3937,-3.3967,-3.4006,-3.4087,-3.4126,-3.4157,-3.4186,-3.4206,-3.42,-3.4199,-3.4227,-3.4229,-3.423,-3.4241,-3.4244,-3.4203,-3.4203,-3.4203,0,-3.3553,-3.362,-3.3663,-3.3707,-3.3739,-3.3777,-3.3817,-3.3853,-3.3925,-3.3946,-3.3949,-3.4051,-3.4092,-3.4155,-3.4162,-3.4185,-3.4197,-3.4192,-3.4225,-3.4227,-3.423,-3.424,-3.4244,-3.4202,-3.4202,-3.4202,-3.4202,0,-3.36,-3.3646,-3.367,-3.3739,-3.3774,-3.3816,-3.3865,-3.3896,-3.3921,-3.3956,-3.4012,-3.4063,-3.4121,-3.4138,-3.4162,-3.4204,-3.4204,-3.4215,-3.422,-3.423,-3.424,-3.4245,-3.42,-3.42,-3.4201,-3.4201,0,0,-3.3593,-3.3686,-3.3694,-3.3725,-3.3794,-3.383,-3.3873,-3.393,-3.3955,-3.4004,-3.4041,-3.4108,-3.4119,-3.4154,-3.4183,-3.4208,-3.4227,-3.4216,-3.4218,-3.4216,-3.4277,-3.4267,-3.4271,-3.4242,-3.4243,-3.4243,-3.4272,0,-3.3616,-3.3695,-3.3735,-3.3797,-3.3839,-3.3876,-3.3913,-3.396,-3.3994,-3.4035,-3.4073,-3.412,-3.4131,-3.4152,-3.4178,-3.4219,-3.424,-3.4218,-3.4277,-3.4278,-3.4261,-3.4277,-3.4267,-3.4291,-3.4276,-3.4277,-3.4277,0,-3.3654,-3.3702,-3.3767,-3.3831,-3.3851,-3.3883,-3.3939,-3.3978,-3.4031,-3.4054,-3.4093,-3.4122,-3.4169,-3.417,-3.4235,-3.4219,-3.4245,-3.4269,-3.4271,-3.4278,-3.4278,-3.4284,-3.43,-3.4303,-3.4284,-3.4284,-3.4283,0,-3.3641,-3.3723,-3.3772,-3.3798,-3.3874,-3.3896,-3.3929,-3.3982,-3.4013,-3.4062,-3.4083,-3.4136,-3.4165,-3.4205,-3.4248,-3.4245,-3.4308,-3.4313,-3.4329,-3.4328,-3.434,-3.4339,-3.4361,-3.4358,-3.4358,-3.4358,-3.4358,0,-3.3663,-3.3701,-3.3768,-3.3798,-3.3842,-3.3889,-3.3931,-3.3967,-3.4013,-3.4051,-3.4086,-3.4121,-3.4175,-3.4217,-3.425,-3.4299,-3.4312,-3.4332,-3.434,-3.4329,-3.4326,-3.4347,-3.4346,-3.4359,-3.4359,-3.4358,-3.4358,0,-3.3657,-3.3703,-3.3759,-3.3826,-3.3844,-3.3873,-3.3931,-3.3962,-3.3998,-3.4046,-3.406,-3.4117,-3.4167,-3.4214,-3.4282,-3.4304,-3.4353,-3.4364,-3.4335,-3.434,-3.4353,-3.4351,-3.4389,-3.4396,-3.4388,-3.4388,-3.4388,0,-3.3667,-3.3697,-3.3768,-3.3796,-3.3828,-3.3872,-3.3905,-3.3951,-3.3984,-3.4047,-3.407,-3.4123,-3.4169,-3.4248,-3.4296,-3.4348,-3.436,-3.4369,-3.4368,-3.4355,-3.436,-3.4357,-3.4361,-3.4369,-3.4369,-3.4368,-3.4368,0,-3.3681,-3.3702,-3.3747,-3.38,-3.3838,-3.3882,-3.3927,-3.3948,-3.4004,-3.4038,-3.4091,-3.4126,-3.4195,-3.4247,-3.4305,-3.4339,-3.4363,-3.4369,-3.4375,-3.4363,-3.4345,-3.4355,-3.4334,-3.4367,-3.4367,-3.4368,-3.4368,-3.4368,-3.3683,-3.3712,-3.3766,-3.3815,-3.3854,-3.3895,-3.3928,-3.3968,-3.4012,-3.4072,-3.4097,-3.415,-3.4203,-3.4283,-3.4316,-3.4359,-3.4364,-3.4373,-3.4375,-3.4377,-3.4374,-3.4338,-3.4369,-3.437,-3.437,-3.437,-3.437,0,-3.3698,-3.3735,-3.378,-3.3842,-3.388,-3.39,-3.3951,-3.3982,-3.4028,-3.4075,-3.4119,-3.4179,-3.4231,-3.4282,-3.4336,-3.436,-3.4373,-3.4373,-3.4371,-3.4379,-3.4367,-3.4356,-3.4362,-3.4362,-3.4362,-3.4362,-3.4362,-3.4362,-3.3711,-3.376,-3.3788,-3.3857,-3.3893,-3.3946,-3.3973,-3.4012,-3.4049,-3.4115,-3.4158,-3.4191,-3.424,-3.4298,-3.4346,-3.436,-3.4378,-3.4375,-3.4392,-3.438,-3.438,-3.438,-3.437,-3.4379,-3.4379,-3.44,-3.44,-3.4401]},{"header":{"parameterUnit":"m.s-1","parameterCategory":1,"la1":30.2991,"la2":30.254,"lo1":-89.0895,"lo2":-89.0444,"dy":0.0017,"dx":0.0017,"nx":28,"ny":28,"refTime":"2023-04-26T15:00:00:Z","depth":0,"parameterNumber":3,"parameterNumberName":"V-component_of_WINDS"},"data":[0,0,0,0,0,0,0,0,0,0,0,0,0,0,0,0,0,0,0,0,0,0,0,0,0,0,0,0,0,0,0,0,0,0,0,0,0,0,0,0,0,0,0,0,0,0,0,0,0,0,0,0,0,0,0,0,0,0,6.504,6.504,0,6.5054,6.5054,6.5054,6.5003,6.5002,6.5,6.4999,6.501,6.5012,6.5014,0,0,0,0,0,0,0,0,0,0,0,0,0,6.4967,6.4969,6.504,6.504,6.504,6.5054,6.5054,6.5054,6.5003,6.5002,6.5,6.4998,6.501,6.5012,6.5014,0,0,0,0,0,0,0,0,0,0,0,0,0,6.4992,6.4969,6.504,6.5017,6.5015,6.5054,6.5054,6.5054,6.5004,6.5001,6.4999,6.4997,6.5009,6.5012,6.5014,6.5076,0,0,6.5022,6.5023,0,0,0,0,0,0,0,0,6.499,6.4994,6.502,6.5018,6.5016,6.5025,6.5033,6.5061,6.5004,6.5008,6.4999,6.4996,6.5017,6.5019,6.5026,6.5076,6.5077,6.5022,6.5024,6.5025,6.5026,0,0,0,0,0,0,0,6.4989,6.4994,6.5045,6.502,6.5018,6.5005,6.5006,6.5038,6.5025,6.5007,6.5004,6.5006,6.5015,6.5024,6.5026,6.5077,6.5022,6.5024,6.5026,6.5027,6.5179,6.5181,0,0,0,0,0,0,6.499,6.4992,6.5045,6.5046,6.4998,6.5008,6.5009,6.5024,6.5024,6.5022,6.5008,6.5004,6.502,6.5023,6.5026,6.5098,6.5025,6.5027,6.5029,6.5176,6.5179,6.5182,0,0,0,0,0,0,6.4989,6.4996,6.5044,6.5018,6.5023,6.5012,6.5029,6.5026,6.5034,6.5025,6.5022,6.5019,6.5019,6.5022,6.5064,6.5098,6.5029,6.5031,6.5173,6.5177,6.5181,6.5243,0,0,0,0,0,0,6.4987,6.4995,6.5019,6.5019,6.5025,6.5083,6.5031,6.5027,6.5039,6.5033,6.5035,6.5033,6.5017,6.506,6.5067,6.51,6.5033,6.517,6.5175,6.518,6.5238,6.5248,6.5257,0,0,0,0,0,6.4985,6.5035,6.502,6.5027,6.5054,6.5085,6.5088,6.507,6.5042,6.5065,6.506,6.5033,6.5094,6.5065,6.5072,6.5107,6.5168,6.5174,6.5179,6.5233,6.5246,6.5257,0,0,0,0,0,0,6.5037,6.5035,6.5018,6.507,6.5078,6.5076,6.5105,6.5084,6.5099,6.5093,6.507,6.507,6.5116,6.5115,6.5084,6.5166,6.5126,6.5133,6.5165,6.5177,6.5187,6.5185,6.5035,0,0,0,0,0,6.5056,6.5081,6.5077,6.5123,6.5128,6.5116,6.5129,6.5114,6.5121,6.5124,6.5121,6.5129,6.5149,6.5163,6.5182,6.5238,6.5238,6.5265,6.5275,6.5283,6.5289,6.5319,6.5332,6.52,6.52,6.52,0,0,6.5092,6.5094,6.5111,6.5134,6.5138,6.5165,6.5119,6.5149,6.5168,6.5128,6.5167,6.5166,6.5172,6.5222,6.5243,6.5223,6.5326,6.529,6.5297,6.5299,6.5326,6.5339,6.535,6.5204,6.5203,6.5203,0,0,6.5173,6.5177,6.5216,6.5222,6.523,6.5222,6.5232,6.5233,6.5231,6.5271,6.5241,6.5264,6.53,6.5306,6.5314,6.5399,6.5375,6.5406,6.5457,6.5486,6.5496,6.5506,6.5536,6.5547,6.5412,6.5413,6.5413,0,6.5217,6.5257,6.5239,6.5271,6.5282,6.5249,6.5288,6.5295,6.5308,6.5316,6.5293,6.5339,6.5341,6.5391,6.5412,6.542,6.543,6.5405,6.5497,6.5506,6.5514,6.5542,6.5554,6.5416,6.5416,6.5415,6.5415,0,6.5311,6.5339,6.537,6.5385,6.5399,6.5435,6.5422,6.5439,6.5424,6.5419,6.5459,6.5461,6.548,6.5491,6.5476,6.554,6.5527,6.5501,6.5459,6.553,6.5556,6.5567,6.5421,6.542,6.5419,6.5418,0,0,6.5422,6.5429,6.5441,6.5448,6.5456,6.5477,6.5511,6.5531,6.5546,6.5557,6.5584,6.5617,6.5594,6.5603,6.5588,6.5615,6.5682,6.5585,6.5585,6.5603,6.5752,6.5771,6.5784,6.5667,6.5669,6.567,6.5751,0,6.5501,6.5562,6.5547,6.5606,6.5632,6.5602,6.5632,6.564,6.5636,6.5657,6.5652,6.5676,6.5643,6.5649,6.5673,6.5669,6.5711,6.5663,6.5692,6.5693,6.569,6.5798,6.5817,6.5894,6.5762,6.5763,6.5765,0,6.5601,6.5617,6.568,6.5685,6.5695,6.5722,6.574,6.576,6.5769,6.5764,6.5775,6.5756,6.579,6.575,6.5796,6.5763,6.5774,6.5774,6.5776,6.5777,6.5732,6.5801,6.5918,6.5929,6.5781,6.5779,6.5778,0,6.5676,6.5714,6.5756,6.5763,6.577,6.579,6.5793,6.58,6.5813,6.5828,6.5836,6.5855,6.5864,6.5879,6.5866,6.5837,6.5914,6.5872,6.591,6.5911,6.5926,6.5925,6.6046,6.5936,6.5935,6.5935,6.5935,0,6.5765,6.5804,6.579,6.5816,6.5859,6.5843,6.5886,6.5886,6.5892,6.5917,6.5892,6.5916,6.5897,6.5919,6.5909,6.5949,6.5953,6.595,6.5946,6.5952,6.5952,6.5958,6.5952,6.5938,6.5937,6.5937,6.5936,0,6.5855,6.5848,6.5892,6.5896,6.5897,6.5929,6.5931,6.5955,6.5951,6.5983,6.5989,6.5981,6.6006,6.5995,6.602,6.6013,6.6065,6.6054,6.6062,6.6059,6.6098,6.6094,6.6225,6.6241,6.6121,6.6123,6.6124,0,6.5912,6.5942,6.595,6.5965,6.5971,6.5996,6.601,6.5995,6.6011,6.6024,6.6046,6.6069,6.6087,6.6128,6.6124,6.6143,6.6133,6.6178,6.6136,6.614,6.6133,6.6131,6.6134,6.6186,6.6187,6.6188,6.6189,0,6.6014,6.6009,6.6031,6.6052,6.607,6.6085,6.6098,6.6112,6.6098,6.6116,6.6142,6.6156,6.6183,6.6206,6.6224,6.6226,6.6206,6.6203,6.6213,6.6218,6.6221,6.6219,6.6084,6.62,6.6199,6.6198,6.6197,6.6197,6.6089,6.6114,6.6124,6.6149,6.6158,6.6171,6.6194,6.6193,6.6215,6.6237,6.6227,6.6257,6.6265,6.6287,6.6293,6.6316,6.6298,6.6312,6.6315,6.6319,6.6324,6.6218,6.6319,6.6319,6.6318,6.6318,6.6318,0,6.6189,6.6194,6.6218,6.6238,6.6258,6.6238,6.6252,6.627,6.6297,6.6307,6.6326,6.6356,6.6379,6.6377,6.6398,6.6417,6.6408,6.6423,6.6421,6.6422,6.6339,6.6328,6.643,6.643,6.643,6.643,6.643,6.643,6.6243,6.6286,6.6282,6.6329,6.6333,6.6364,6.6374,6.6386,6.6394,6.6429,6.6449,6.6448,6.6454,6.6475,6.6495,6.6494,6.6502,6.6521,6.6516,6.6439,6.6427,6.6417,6.6407,6.6523,6.6523,6.6597,6.6598,6.6598]}]]